Location: ???????
(55.4362°N, 38.1183°E)
Time: 19:43:23
(UTC+00:00)

OPS 8737 - Pass Details

Date: 29 October 2021
Orbit: 356 x 1703 km, 63.3° (Epoch: 11 October)

Event Time Altitude Azimuth Distance (km) Brightness Sun altitude
Rises 14:57:32 0° 297° (WNW) 2,277 8.9 -9.3°
Reaches altitude 10° 15:00:00 10° 318° (NW) 1,361 7.3 -9.6°
Maximum altitude 15:02:08 18° 6° (N) 965 5.9 -9.9°
Enters shadow 15:03:49 12° 47° (NE) 1,231 6.1 -10.2°
